FW5863 Weather Reports


Display with metric or nautical units.
time (UTC)temp
F
wind
direction
speed
MPH
gust
MPH
rain 1hr
in
rain 24hr
in
rain mn
in
humidity
%
barometer
mb
20260904192458 80 291 4.0 9.0 0.00 0.16 0.16 74 1012.7
20260904191958 80 321 4.0 9.0 0.00 0.16 0.16 74 1012.6
20260904191459 80 290 4.0 9.0 0.00 0.16 0.16 73 1012.7
20260904190958 81 309 5.0 9.0 0.00 0.16 0.16 73 1012.7
20260904190458 82 306 5.0 9.0 0.00 0.16 0.16 72 1012.8
20260904185959 82 332 6.0 14.0 0.00 0.16 0.16 71 1012.8
20260904185458 82 338 7.0 14.0 0.00 0.16 0.16 71 1012.8
20260904184958 82 261 6.0 11.0 0.00 0.16 0.16 74 1012.8
20260904184459 82 277 5.0 11.0 0.00 0.16 0.16 72 1012.9
20260904183958 82 313 4.0 11.0 0.00 0.16 0.16 72 1013.0
20260904183458 82 289 5.0 11.0 0.00 0.16 0.16 71 1013.0
20260904182959 82 285 5.0 9.0 0.00 0.16 0.16 74 1013.1
20260904182458 82 347 5.0 9.0 0.00 0.16 0.16 72 1013.1
20260904181958 82 296 5.0 8.0 0.00 0.16 0.16 73 1013.1
20260904181459 82 302 4.0 9.0 0.00 0.16 0.16 74 1013.1
20260904180958 81 260 3.0 7.0 0.00 0.16 0.16 76 1013.2
20260904180458 81 259 3.0 6.0 0.00 0.16 0.16 78 1013.2
20260904175959 80 302 4.0 9.0 0.00 0.16 0.16 75 1013.2
20260904175458 80 298 5.0 10.0 0.00 0.16 0.16 75 1013.2
20260904173958 80 282 4.0 9.0 0.00 0.16 0.16 75 1013.3
20260904173000 80 327 4.0 7.0 0.00 0.16 0.16 75 1013.3
20260904172458 80 290 3.0 8.0 0.00 0.16 0.16 75 1013.3
20260904171958 80 290 2.0 8.0 0.00 0.16 0.16 75 1013.3
20260904171459 80 317 2.0 4.0 0.00 0.16 0.16 75 1013.3
20260904170958 80 304 2.0 4.0 0.00 0.16 0.16 77 1013.2
20260904170458 80 328 3.0 5.0 0.00 0.16 0.16 77 1013.2
20260904165959 80 321 4.0 7.0 0.00 0.16 0.16 76 1013.3
20260904165458 80 331 3.0 7.0 0.00 0.16 0.16 76 1013.3
20260904164958 80 8 2.0 5.0 0.00 0.16 0.16 77 1013.2
20260904164459 79 317 3.0 5.0 0.00 0.16 0.16 77 1013.4
20260904163958 79 290 3.0 5.0 0.00 0.16 0.16 75 1013.4
20260904163458 79 289 3.0 5.0 0.00 0.16 0.16 76 1013.5
20260904162959 79 279 3.0 8.0 0.00 0.16 0.16 75 1013.6
20260904162458 79 333 3.0 8.0 0.00 0.16 0.16 76 1013.6
20260904161958 79 308 4.0 10.0 0.00 0.16 0.16 76 1013.6
20260904161459 79 327 5.0 10.0 0.00 0.16 0.16 75 1013.6
20260904155458 79 342 4.0 9.0 0.00 0.16 0.16 75 1013.5
20260904154958 79 19 4.0 9.0 0.00 0.16 0.16 75 1013.6
20260904154459 79 108 4.0 10.0 0.00 0.16 0.16 76 1013.5
20260904153958 78 339 5.0 10.0 0.00 0.16 0.16 77 1013.5
20260904152959 78 254 3.0 9.0 0.00 0.16 0.16 79 1013.6
20260904152458 78 273 5.0 13.0 0.00 0.16 0.16 79 1013.7
20260904151958 78 315 6.0 13.0 0.00 0.16 0.16 75 1013.6
20260904151459 79 325 4.0 12.0 0.00 0.16 0.16 76 1013.6
20260904150958 78 325 3.0 9.0 0.00 0.16 0.16 79 1013.8
20260904150458 78 1 4.0 9.0 0.00 0.16 0.16 79 1013.8
20260904145959 78 344 3.0 8.0 0.00 0.16 0.16 79 1013.8
20260904145458 78 298 3.0 8.0 0.00 0.16 0.16 81 1013.8
20260904144958 77 298 4.0 9.0 0.00 0.16 0.16 81 1013.7
20260904144459 77 310 4.0 9.0 0.00 0.16 0.16 81 1013.8
20260904143958 77 284 4.0 9.0 0.00 0.16 0.16 81 1013.8
20260904142959 77 271 3.0 8.0 0.00 0.16 0.16 82 1013.7
20260904141958 77 282 4.0 10.0 0.00 0.16 0.16 80 1013.7
20260904141459 78 1 4.0 10.0 0.00 0.16 0.16 80 1013.7
20260904140958 78 303 4.0 9.0 0.00 0.16 0.16 82 1013.6
20260904140458 77 282 3.0 7.0 0.00 0.16 0.16 80 1013.6
20260904135959 77 269 3.0 7.0 0.00 0.16 0.16 83 1013.6
20260904135458 77 277 4.0 11.0 0.00 0.16 0.16 83 1013.6
20260904134958 76 263 3.0 11.0 0.00 0.16 0.16 84 1013.6
20260904133458 75 352 4.0 10.0 0.00 0.16 0.16 85 1013.7
20260904132959 75 298 3.0 9.0 0.00 0.16 0.16 86 1013.7
20260904131958 75 266 4.0 8.0 0.00 0.16 0.16 86 1013.8
20260904130958 75 261 3.0 7.0 0.00 0.16 0.16 87 1013.8
20260904130458 75 244 3.0 10.0 0.00 0.16 0.16 87 1013.8
20260904125959 75 223 3.0 10.0 0.00 0.16 0.16 87 1013.7
20260904125458 75 279 3.0 7.0 0.00 0.16 0.16 88 1013.8
20260904124459 74 307 3.0 6.0 0.00 0.16 0.16 88 1013.8
20260904123458 74 236 3.0 6.0 0.00 0.16 0.16 90 1013.8
20260904122458 73 227 2.0 7.0 0.00 0.16 0.16 90 1013.8
20260904121958 73 246 2.0 5.0 0.00 0.16 0.16 91 1013.6
20260904120958 73 213 3.0 7.0 0.00 0.16 0.16 91 1013.6
20260904120458 73 257 4.0 7.0 0.00 0.16 0.16 92 1013.8
20260904115959 72 242 4.0 7.0 0.00 0.16 0.16 92 1013.9
20260904115458 72 277 4.0 6.0 0.00 0.16 0.16 92 1013.8
20260904114958 72 241 4.0 6.0 0.00 0.16 0.16 92 1013.7
20260904114459 72 219 4.0 6.0 0.00 0.16 0.16 93 1013.7
20260904113958 0 0.0 0.0 0.00 0.16 0.16 1013.7
20260904113458 0 0.0 0.0 0.00 0.16 0.16 1013.6
20260904112959 0 0.0 0.0 0.00 0.16 0.16 1013.6
20260904112458 0 0.0 0.0 0.00 0.16 0.16 1013.6
20260904111958 0 0.0 0.0 0.00 0.16 0.16 1013.5
20260904111459 0 0.0 0.0 0.00 0.16 0.16 1013.5
20260904110958 0 0.0 0.0 0.00 0.16 0.16 1013.4
20260904110458 0 0.0 0.0 0.00 0.16 0.16 1013.4
20260904105959 0 0.0 0.0 0.00 0.16 0.16 1013.4
20260904104958 0 0.0 0.0 0.00 0.16 0.16 1013.1
20260904104459 0 0.0 0.0 0.00 0.16 0.16 1013.1
20260904103958 0 0.0 0.0 0.00 0.16 0.16 1013.1
20260904103458 0 0.0 0.0 0.00 0.16 0.16 1013.1
20260904102458 0 0.0 0.0 0.00 0.16 0.16 1012.7
20260904101958 0 0.0 0.0 0.00 0.16 0.16 1012.7
20260904101459 0 0.0 0.0 0.00 0.16 0.16 1012.8
20260904100958 0 0.0 0.0 0.00 0.16 0.16 1012.7
20260904100458 0 0.0 0.0 0.00 0.16 0.16 1012.6
20260904095959 73 50 6.0 11.0 0.00 0.16 0.16 92 1012.4
20260904095458 73 50 6.0 11.0 0.00 0.16 0.16 92 1012.6
20260904094459 73 50 6.0 11.0 0.00 0.16 0.16 92 1012.6
20260904093958 73 50 5.0 10.0 0.00 0.16 0.16 92 1012.6
20260904093458 73 50 5.0 13.0 0.00 0.16 0.16 92 1012.7
20260904093004 73 50 6.0 13.0 0.00 0.16 0.16 92 1012.6
20260904092458 73 50 6.0 10.0 0.00 0.16 0.16 92 1012.7
20260904091459 73 50 6.0 11.0 0.00 0.16 0.16 93 1012.7
20260904090958 73 50 6.0 12.0 0.00 0.16 0.16 93 1012.8
20260904090458 73 50 6.0 12.0 0.00 0.16 0.16 93 1012.8
20260904085959 73 50 6.0 12.0 0.00 0.19 0.16 93 1012.9
20260904085500 73 50 5.0 12.0 0.00 0.19 0.16 93 1012.8
20260904084958 73 50 4.0 9.0 0.00 0.19 0.16 93 1012.8
20260904083958 73 50 4.0 9.0 0.00 0.19 0.16 93 1012.8
20260904083458 73 50 5.0 9.0 0.00 0.19 0.16 92 1012.6
20260904082958 74 50 5.0 9.0 0.00 0.19 0.16 92 1012.6
20260904082458 74 50 5.0 9.0 0.00 0.19 0.16 92 1012.5
20260904081958 74 50 5.0 11.0 0.00 0.19 0.16 93 1012.5
20260904081459 74 50 5.0 11.0 0.00 0.19 0.16 93 1012.5
20260904080958 74 50 6.0 11.0 0.00 0.19 0.16 93 1012.4
20260904080458 74 50 6.0 10.0 0.00 0.19 0.16 94 1012.3
20260904075959 74 50 6.0 14.0 0.00 0.26 0.16 94 1012.4
20260904075458 73 50 6.0 14.0 0.00 0.26 0.16 95 1012.5
20260904074958 73 50 5.0 11.0 0.00 0.26 0.16 97 1012.6
20260904074459 73 50 5.0 11.0 0.00 0.26 0.16 98 1012.5
20260904073958 73 50 5.0 9.0 0.00 0.26 0.16 98 1012.5
20260904073458 72 50 4.0 9.0 0.00 0.26 0.16 99 1012.5
20260904072959 71 50 2.0 6.0 0.00 0.26 0.16 99 1012.5
20260904072458 70 50 0.0 5.0 0.00 0.26 0.16 98 1012.4
20260904071958 70 50 0.0 0.0 0.00 0.26 0.16 98 1012.3
20260904071459 69 50 0.0 0.0 0.00 0.26 0.16 97 1012.2
20260904070958 69 50 0.0 0.0 0.00 0.26 0.16 97 1012.1
20260904070458 69 50 0.0 0.0 0.00 0.26 0.16 97 1012.0
20260904065958 69 50 0.0 0.0 0.00 0.30 0.16 97 1011.9
20260904065458 69 50 0.0 0.0 0.00 0.30 0.16 96 1011.8
20260904064958 69 50 0.0 0.0 0.00 0.30 0.16 96 1011.7
20260904064459 70 50 0.0 0.0 0.00 0.30 0.16 96 1011.7
20260904063958 70 50 0.0 0.0 0.00 0.30 0.16 96 1011.7
20260904063458 70 50 0.0 0.0 0.00 0.30 0.16 97 1011.7
20260904062959 70 50 0.0 0.0 0.00 0.30 0.16 96 1011.8
20260904062458 70 50 0.0 0.0 0.00 0.30 0.16 96 1011.8
20260904061958 70 50 0.0 0.0 0.00 0.30 0.16 96 1011.9
20260904061459 70 50 0.0 0.0 0.00 0.30 0.16 96 1011.8
20260904060458 70 50 0.0 0.0 0.00 0.30 0.16 96 1012.0
20260904055959 70 50 0.0 0.0 0.00 0.37 0.16 96 1012.1
20260904055458 70 50 0.0 0.0 0.00 0.37 0.16 96 1012.2
20260904054958 70 50 0.0 0.0 0.00 0.37 0.16 96 1012.4
20260904054459 70 50 0.0 0.0 0.00 0.37 0.16 95 1012.5
20260904053958 71 50 0.0 0.0 0.00 0.37 0.16 95 1012.5
20260904053458 71 50 0.0 0.0 0.00 0.37 0.16 95 1012.5
20260904052959 71 50 0.0 0.0 0.00 0.37 0.16 95 1012.6
20260904052458 71 50 0.0 0.0 0.00 0.37 0.16 95 1012.6
20260904051958 71 50 0.0 0.0 0.02 0.37 0.16 94 1012.6
20260904051459 71 50 0.0 0.0 0.06 0.37 0.16 94 1012.6
20260904050958 71 50 0.0 0.0 0.15 0.37 0.16 94 1012.6
20260904050458 71 50 0.0 0.0 0.16 0.37 0.16 93 1012.8
20260904045959 71 50 0.0 0.0 0.16 0.43 0.16 93 1012.8
20260904045458 72 50 1.0 3.0 0.16 0.43 0.16 93 1012.8
20260904044459 72 50 3.0 6.0 0.16 0.43 0.16 93 1012.7
20260904043958 72 50 3.0 9.0 0.16 0.43 0.16 92 1012.7
20260904043458 72 50 4.0 9.0 0.16 0.43 0.16 91 1012.7
20260904042959 73 50 5.0 10.0 0.16 0.43 0.16 90 1012.7
20260904042458 74 282 8.0 16.0 0.16 0.43 0.16 89 1012.7
20260904041957 75 50 11.0 21.0 0.14 0.41 0.14 89 1013.1
20260904041459 76 50 9.0 21.0 0.10 0.37 0.10 88 1013.4
20260904040958 77 278 6.0 14.0 0.01 0.28 0.01 87 1013.2
20260904040458 77 244 6.0 10.0 0.00 0.27 0.00 87 1012.6
20260904035459 77 244 6.0 10.0 0.00 0.28 0.27 87 1013.1
20260904034959 77 242 6.0 10.0 0.00 0.28 0.27 86 1013.1
20260904034500 77 244 6.0 9.0 0.00 0.28 0.27 86 1012.9
20260904033959 77 246 6.0 9.0 0.00 0.28 0.27 86 1012.8
20260904032459 77 50 6.0 12.0 0.00 0.28 0.27 86 1013.3
20260904031959 77 50 5.0 12.0 0.00 0.28 0.27 87 1013.4
20260904031501 77 50 5.0 11.0 0.00 0.28 0.27 87 1013.3
20260904030959 77 50 7.0 11.0 0.00 0.28 0.27 86 1013.4
20260904030459 77 50 7.0 12.0 0.00 0.28 0.27 86 1013.5
20260904025959 77 50 5.0 12.0 0.00 0.28 0.27 86 1013.4
20260904025459 77 50 3.0 9.0 0.00 0.28 0.27 87 1013.4
20260904024959 77 50 2.0 6.0 0.00 0.28 0.27 87 1013.4
20260904024500 77 50 3.0 6.0 0.00 0.28 0.27 87 1013.3
20260904023959 76 50 3.0 6.0 0.00 0.28 0.27 87 1013.3
20260904023459 76 50 2.0 6.0 0.00 0.28 0.27 88 1013.3
20260904023000 75 234 1.0 4.0 0.00 0.28 0.27 89 1013.2
20260904022459 76 205 0.0 1.0 0.00 0.28 0.27 88 1013.1
20260904021959 76 50 0.0 3.0 0.00 0.28 0.27 88 1013.0
20260904021500 76 50 1.0 5.0 0.00 0.28 0.27 87 1013.1
20260904020459 76 237 4.0 7.0 0.00 0.28 0.27 87 1013.5
20260904020000 76 236 3.0 7.0 0.00 0.28 0.27 88 1013.6
20260904015459 75 223 2.0 4.0 0.00 0.28 0.27 89 1013.7
20260904014959 75 220 2.0 5.0 0.00 0.28 0.27 89 1013.6
20260904013959 75 211 1.0 5.0 0.00 0.28 0.27 90 1013.7
20260904013459 75 233 0.0 2.0 0.00 0.28 0.27 89 1013.7
20260904013000 76 243 0.0 1.0 0.00 0.28 0.27 88 1013.7
20260904012459 76 243 0.0 2.0 0.00 0.28 0.27 88 1013.9
20260904011959 76 243 0.0 2.0 0.00 0.28 0.27 87 1014.0
20260904011459 77 243 0.0 2.0 0.00 0.28 0.27 86 1014.0
20260904010959 78 242 1.0 4.0 0.00 0.28 0.27 85 1013.9
20260904010459 78 242 2.0 4.0 0.00 0.28 0.27 84 1013.9
20260904010000 78 243 2.0 5.0 0.00 0.28 0.27 84 1013.8
20260904005459 78 245 4.0 6.0 0.00 0.28 0.27 84 1013.7
20260904004959 78 244 3.0 6.0 0.00 0.28 0.27 85 1013.9
20260904004500 77 238 1.0 5.0 0.00 0.28 0.27 85 1013.9
20260904003959 78 216 0.0 5.0 0.00 0.28 0.27 85 1013.8
20260904003459 78 216 1.0 5.0 0.00 0.28 0.27 84 1013.8
20260904002959 78 237 3.0 6.0 0.00 0.28 0.27 84 1013.8
20260904002459 78 228 3.0 6.0 0.00 0.28 0.27 84 1013.9
20260904001500 79 218 3.0 7.0 0.00 0.28 0.27 83 1013.6
20260904000959 78 242 3.0 6.0 0.00 0.28 0.27 84 1013.4
20260904000459 78 234 1.0 4.0 0.00 0.28 0.27 84 1013.3
20260904000000 78 231 1.0 4.0 0.00 0.28 0.27 84 1013.2
20260903235459 78 234 1.0 4.0 0.00 0.28 0.27 83 1013.2
20260903234959 79 236 1.0 2.0 0.00 0.28 0.27 83 1013.3
20260903234500 79 236 2.0 4.0 0.00 0.28 0.27 82 1013.2
20260903233459 79 237 3.0 5.0 0.00 0.28 0.27 81 1013.4
20260903232459 79 246 2.0 6.0 0.00 0.28 0.27 81 1013.5
20260903231959 79 202 1.0 6.0 0.00 0.28 0.27 81 1013.3
20260903230959 80 259 2.0 4.0 0.00 0.28 0.27 79 1013.3
20260903230459 80 259 2.0 4.0 0.00 0.28 0.27 79 1013.4
20260903230000 80 256 3.0 6.0 0.00 0.28 0.27 80 1013.6
20260903225459 80 265 4.0 7.0 0.00 0.28 0.27 79 1013.7
20260903224959 81 258 4.0 7.0 0.00 0.28 0.27 78 1013.4
20260903224500 81 246 5.0 7.0 0.00 0.28 0.27 77 1013.3
20260903223959 82 249 4.0 7.0 0.00 0.28 0.27 77 1013.2
20260903223459 82 242 3.0 5.0 0.00 0.28 0.27 76 1013.2
20260903223000 83 254 3.0 6.0 0.00 0.28 0.27 75 1013.1
20260903222459 84 254 3.0 6.0 0.00 0.28 0.27 75 1013.0
20260903221959 84 257 4.0 6.0 0.00 0.28 0.27 75 1013.0
20260903221500 84 247 4.0 6.0 0.00 0.28 0.27 75 1013.1
20260903220959 84 247 4.0 6.0 0.00 0.28 0.27 75 1013.2
20260903220459 84 242 4.0 8.0 0.00 0.28 0.27 75 1013.2
20260903220000 84 254 5.0 9.0 0.00 0.28 0.27 74 1013.2
20260903214500 85 279 5.0 10.0 0.00 0.28 0.27 71 1013.0
20260903213959 85 249 3.0 7.0 0.00 0.28 0.27 71 1013.0
20260903213459 85 275 3.0 7.0 0.00 0.28 0.27 73 1012.8
20260903213000 85 256 3.0 7.0 0.00 0.28 0.27 74 1012.7
20260903212459 85 249 4.0 6.0 0.00 0.28 0.27 73 1012.6
20260903211959 85 245 4.0 6.0 0.00 0.28 0.27 72 1012.5
20260903211459 85 242 3.0 6.0 0.00 0.28 0.27 75 1012.5
20260903210959 85 259 3.0 5.0 0.00 0.28 0.27 76 1012.5
20260903210000 84 266 4.0 7.0 0.00 0.28 0.27 72 1012.7
20260903205459 85 235 4.0 8.0 0.00 0.28 0.27 73 1012.7
20260903204959 85 250 5.0 8.0 0.00 0.28 0.27 73 1012.8
20260903204500 84 271 6.0 10.0 0.00 0.28 0.27 72 1012.8
20260903203959 84 259 6.0 10.0 0.00 0.28 0.27 73 1012.8
20260903203459 84 252 6.0 9.0 0.00 0.28 0.27 75 1012.9
20260903203000 84 242 5.0 10.0 0.00 0.28 0.27 74 1012.9
20260903202459 84 242 4.0 10.0 0.00 0.28 0.27 75 1013.0
20260903201959 84 248 5.0 8.0 0.00 0.28 0.27 75 1012.9
20260903201459 85 228 5.0 9.0 0.00 0.28 0.27 73 1013.0
20260903200959 85 243 5.0 9.0 0.00 0.28 0.27 72 1013.1
20260903200459 85 267 5.0 12.0 0.00 0.28 0.27 73 1013.2
20260903200000 85 273 6.0 12.0 0.00 0.28 0.27 73 1013.3
20260903195459 85 304 6.0 12.0 0.00 0.28 0.27 72 1013.2
20260903194959 85 240 6.0 10.0 0.00 0.28 0.27 73 1013.2
20260903194459 85 250 6.0 14.0 0.00 0.28 0.27 73 1013.3
20260903193959 85 328 5.0 14.0 0.00 0.28 0.27 73 1013.3
20260903192959 85 249 5.0 10.0 0.00 0.28 0.27 75 1013.3